Location: Unspecified
(0.0000°N, 0.0000°E)
Time: 15:09:46
(UTC+00:00)

Vanguard 1 Rocket - All Passes

Search period start: 24 May 2015 00:00
Search period end: 03 June 2015 00:00
Orbit: 655 x 4224 km, 34.3° (Epoch: 24 May)

Date Brightness Start Highest point End Pass type
(mag) Time Alt. Az. Time Alt. Az. Time Alt. Az.
24 May - 00:30:44 10° NW 00:52:02 56° NE 01:17:03 10° ESE visible
24 May - 03:00:35 10° WNW 03:26:42 71° SW 03:47:43 10° SE visible
24 May - 05:40:24 10° W 06:00:14 28° SSW 06:12:52 10° SSE daylight
24 May - 13:29:00 10° SSW 13:33:19 33° SSE 13:37:23 10° E daylight
24 May - 15:55:00 10° WNW 15:58:32 21° NNW 16:02:53 10° NNE daylight
24 May - 20:55:49 10° N 21:01:27 13° NNE 21:09:47 10° NE visible
24 May - 23:19:10 10° NNW 23:36:22 39° NNE 00:00:16 10° E visible
25 May - 01:46:31 10° NW 02:11:05 87° NE 02:35:06 10° SE visible
25 May - 04:20:58 10° WNW 04:45:20 43° SW 05:02:20 10° SSE visible
25 May - 07:10:39 10° SW 07:19:20 13° SSW 07:25:05 10° S daylight
25 May - 12:19:09 10° S 12:22:13 15° SSE 12:25:00 10° ESE daylight
25 May - 14:43:18 10° WSW 14:47:34 46° NW 14:52:21 10° NE daylight
25 May - 22:08:28 10° NNW 22:21:05 26° NNE 22:40:28 10° E visible
26 May - 00:33:51 10° NW 00:55:23 66° NE 01:21:02 10° ESE visible
26 May - 03:04:23 10° WNW 03:29:58 61° SW 03:50:54 10° SE visible
26 May - 05:46:34 10° WSW 06:04:24 23° SSW 06:15:59 10° SSE daylight
26 May - 13:32:14 10° SW 13:37:06 63° SE 13:41:31 10° ENE daylight
26 May - 16:00:49 10° NW 16:02:43 12° NNW 16:04:38 10° N daylight
26 May - 20:59:00 10° N 21:06:12 15° NNE 21:17:14 10° ENE visible
26 May - 23:22:14 10° NNW 23:40:00 47° NE 00:04:59 10° ESE visible
27 May - 01:49:57 10° NW 02:14:15 81° SW 02:38:26 10° SE visible
27 May - 04:25:58 10° W 04:49:04 36° SSW 05:05:26 10° SSE visible
27 May - 07:18:13 10° SW 07:24:11 12° SSW 07:28:17 10° S daylight
27 May - 12:21:30 10° SSW 12:26:20 26° SSE 12:30:09 10° E daylight
27 May - 14:47:42 10° W 14:51:25 25° NNW 14:55:22 10° NNE daylight
27 May - 22:11:34 10° NNW 22:25:06 32° NNE 22:46:17 10° E visible
28 May - 00:37:04 10° NW 00:58:35 78° NE 01:24:41 10° ESE visible
28 May - 03:08:32 10° WNW 03:33:23 51° SW 03:54:00 10° SE visible
28 May - 05:53:18 10° WSW 06:08:54 19° SSW 06:19:16 10° SSE daylight
28 May - 11:10:54 10° SSW 11:14:42 15° SSE 11:17:54 10° SE daylight
28 May - 13:35:52 10° WSW 13:40:50 68° NW 13:45:14 10° NE daylight
28 May - 21:01:58 10° N 21:10:38 19° NNE 21:24:24 10° ENE visible
28 May - 23:25:22 10° NW 23:43:23 57° NE 00:09:13 10° ESE visible
29 May - 01:53:36 10° WNW 02:17:30 69° SW 02:41:37 10° SE visible
29 May - 04:31:29 10° W 04:53:09 30° SSW 05:08:36 10° SSE visible
29 May - 07:24:51 10° SSW 07:29:13 11° SSW 07:32:24 10° S daylight
29 May - 10:00:25 10° S 10:02:14 11° S 10:04:03 10° SSE daylight
29 May - 12:24:25 10° SW 12:30:16 46° SSE 12:34:34 10° ENE daylight
29 May - 14:52:55 10° WNW 14:55:20 14° NNW 14:57:41 10° N daylight
29 May - 22:14:38 10° NNW 22:28:49 38° NE 22:51:29 10° E visible
30 May - 00:40:26 10° NW 01:01:45 90° NE 01:28:05 10° SE visible
30 May - 03:13:06 10° W 03:37:04 43° SSW 03:57:04 10° SSE visible
30 May - 06:00:16 10° SW 06:13:42 17° SSW 06:22:53 10° SSE daylight
30 May - 11:13:01 10° SSW 11:19:00 24° SSE 11:23:15 10° E daylight
30 May - 13:39:54 10° WSW 13:44:31 36° NW 13:48:35 10° NNE daylight
30 May - 21:04:53 10° NNW 21:14:46 23° NE 21:30:57 10° E visible
30 May - 23:28:35 10° NW 23:46:36 68° NE 00:13:04 10° ESE visible
31 May - 01:57:32 10° WNW 02:20:54 59° SW 02:44:41 10° SE visible
31 May - 04:37:34 10° WSW 04:57:33 25° SSW 05:11:54 10° SSE visible
31 May - 07:29:27 10° SSW 07:34:20 11° S 07:38:13 10° S daylight
31 May - 10:01:16 10° SSW 10:06:50 16° SSE 10:11:05 10° SE daylight
31 May - 12:27:44 10° SW 12:34:05 83° SE 12:38:32 10° ENE daylight
31 May - 19:57:27 10° NNE 20:01:01 12° NNE 20:06:42 10° NE visible
31 May - 22:17:44 10° NNW 22:32:15 47° NE 22:56:07 10° ESE visible
01 Jun - 00:44:00 10° WNW 01:05:00 78° SW 01:31:16 10° SE visible
01 Jun - 03:18:07 10° W 03:41:03 36° SSW 04:00:11 10° SSE visible
01 Jun - 06:07:00 10° SW 06:18:45 15° SSW 06:27:05 10° SSE daylight
01 Jun - 08:48:22 10° SSW 08:53:42 13° S 08:58:03 10° SE daylight
01 Jun - 11:15:43 10° SW 11:23:08 38° SSE 11:27:53 10° E daylight
01 Jun - 13:44:29 10° W 13:48:13 20° NW 13:51:28 10° NNE daylight
01 Jun - 21:07:49 10° NNW 21:18:35 29° NE 21:36:48 10° E visible
01 Jun - 23:31:55 10° NW 23:49:47 80° NE 00:16:34 10° SE visible
02 Jun - 02:01:48 10° WNW 02:24:32 49° SSW 02:47:41 10° SE visible
02 Jun - 04:44:04 10° WSW 05:02:18 22° SSW 05:15:30 10° SSE visible
02 Jun - 07:32:40 10° SSW 07:39:26 13° S 07:44:48 10° SSE daylight
02 Jun - 10:03:24 10° SSW 10:11:17 24° SSE 10:16:30 10° ESE daylight
02 Jun - 12:31:26 10° WSW 12:37:45 56° NW 12:42:10 10° NE daylight
02 Jun - 19:59:24 10° N 20:05:17 15° NNE 20:14:37 10° ENE visible
02 Jun - 22:20:54 10° NW 22:35:32 57° NE 23:00:15 10° ESE visible
